{"data":{"norad_id":58743,"intl_designator":"2024-005R","name":"STARLINK-31156","alt_names":[],"object_type":"PAYLOAD","status":"ACTIVE","operator":null,"country":"US","launch_date":"2024-01-07","launch_site_code":"AFETR","launch_vehicle":null,"mission":null,"orbit_class":"UNKNOWN","rcs_meters":null,"size_class":null,"mass_kg":null,"dimensions":null,"purposes":["comms"],"wikipedia_slug":null,"has_3d_model":false,"image_url":null,"decayed_at":null,"tle_current":{"epoch":"2026-09-19T05:23:38.893344Z","epoch_age_seconds":259963,"freshness":"STALE","line1":"1 58743U 24005R   26262.22475571  .00000773  00000+0  37615-4 0  9991","line2":"2 58743  43.0021 206.6732 0001020 283.5944  76.4794 15.27573949150097","mean_motion":15.27573949,"eccentricity":0.000102,"inclination_deg":43.0021,"raan_deg":206.6732,"arg_perigee_deg":283.5944,"mean_anomaly_deg":76.4794,"bstar":3.7615e-5,"rev_number":15009,"period_min":94.267122121497,"perigee_km":482.36737214037,"apogee_km":483.76705780023,"semimajor_km":6861.2042149703,"source":"CELESTRAK","updated_at":"2026-09-21T09:00:33.954371Z"}}}